Weather Roundup
Issued by NWS

Home | Current Version | Previous Version | Text Only | Print | Product List | Glossary On
Versions: 1 2 3 4 5 6 7 8 9 10 11 12 13 14 15 16 17 18 19 20 21 22 23 24 25 26 27 28 29 30 31 32 33 34 35 36 37 38 39 40 41 42 43 44 45 46 47 48 49 50
000
NZUS93 KARX 171410
HRRWXR

CURRENT HOURLY OBSERVATIONS ACROSS
MUCH OF THE UPPER MISSISSIPPI VALLEY
NATIONAL WEATHER SERVICE LA CROSSE WI
800 AM CST TUE JAN 17 2017


...SOUTHEAST MINNESOTA...


CITY           SKY/WX    TMP DP  RH WIND       PRES   REMARKS
ROCHESTER      MIX PCPN  31  31 100 NW10      29.89S FOG     WCI  22
ROCHESTER/MAYO CLOUDY    32  32 100 NW6       29.90R WCI  26
WINONA         CLOUDY    34  34 100 NW5       29.90R FOG     WCI  30
AUSTIN         CLOUDY    30  30 100 N5        29.90S FOG     WCI  25
ALBERT LEA     FOG       30  30 100 NW3       29.92S VSB 1/4
DODGE CENTER   FOG       30  30 100 CALM      29.89F VSB<1/4
PRESTON        CLOUDY    31  31  97 N5        29.88R FOG     WCI  27
OWATONNA       LGT SNOW  30  28  93 NW3       29.92F VSB 3/4
FARIBAULT      MIX PCPN  30  28  93 NW5       29.93S WCI  25
$$

...ELSEWHERE IN MINNESOTA...


CITY           SKY/WX    TMP DP  RH WIND       PRES   REMARKS
MINNEAPOLIS    CLOUDY    31  28  89 N9G21     29.95R WCI  23
INTNL FALLS    CLOUDY    -1  -6  79 CALM      29.91F
DULUTH         FOG       22  20  92 NW5       29.93R VSB 1/8 WCI  16
RED WING       MIX PCPN  34  30  86 W3        29.91S
REDWOOD FALLS  CLOUDY    22  18  85 NW7       30.00R WCI  13
MANKATO        CLOUDY    30  28  92 NW9       29.96R FOG     WCI  22
WORTHINGTON    FOG       27  25  93 NW8       29.99R VSB 1   WCI  18
FAIRMONT       FOG       27  25  93 NW14      29.97S VSB 3/4 WCI  15
$$

...SOUTHWEST WISCONSIN...


CITY           SKY/WX    TMP DP  RH WIND       PRES   REMARKS
LA CROSSE      FOG       36  33  89 NW7       29.88R VSB 1   WCI  30
PRAIRIE DU CHI CLOUDY    33  32  97 CALM      29.87R FOG
BOSCOBEL       CLOUDY    34  33  96 CALM      29.88R FOG
LONE ROCK      LGT RAIN  34  32  92 NW6       29.86R FOG     WCI  29
PLATTEVILLE    CLOUDY    33  33 100 NW7       29.85R VSB 1/4 WCI  27
FORT MC COY    FOG       32  32 100 CALM      29.87S VSB 3/4
CAMP DOUGLAS   CLOUDY    32  32 100 NW3       29.85S FOG
MAUSTON-NEW LI FOG       33  33  99 NW3       29.85S VSB 1
VIROQUA        CLOUDY    32  32 100 CALM      29.84S VSB 3/4
WIS DELLS      FOG       32  32 100 CALM      29.84S VSB 1/2
$$

...ELSEWHERE IN WISCONSIN...


CITY           SKY/WX    TMP DP  RH WIND       PRES   REMARKS
MILWAUKEE      DRZL/FOG  37  35  92 NW8       29.79S VSB 1/2 WCI  31
MADISON        FOG       33  33 100 NW5       29.83R VSB 3/4 WCI  29
GREEN BAY      CLOUDY    35  35 100 N13       29.85R FOG     WCI  26
EAU CLAIRE     MIX PCPN  33  32  96 N3        29.89S FOG
BLACK RVR FLS  CLOUDY    33  33 100 CALM      29.87R FOG
MEDFORD        MIX PCPN  32  31  98 NE5       29.86R WCI  27
WAUSAU         LGT RAIN  33  32  96 N5        29.84S FOG     WCI  29
WIS RAPIDS     CLOUDY    33  33 100 CALM      29.87R FOG
MARSHFIELD     FOG       33  32  96 NE7       29.84S VSB 1   WCI  27
RICE LAKE      MIX PCPN  33  32  97 N6        29.92R WCI  27
$$

...NORTHEAST IOWA...


CITY           SKY/WX    TMP DP  RH WIND       PRES   REMARKS
WATERLOO       CLOUDY    33  31  92 NW7       29.91R WCI  27
DUBUQUE        CLOUDY    32  32 100 NW5       29.86R FOG     WCI  27
DECORAH        FOG       32  32 100 NW6       29.86R VSB 1/4 WCI  26
MASON CITY     FOG       30  29  96 NW14      29.92S VSB 3/4 WCI  19
CHARLES CITY   CLOUDY    32  32 100 MISG      29.89S FOG
OELWEIN        CLOUDY    32  32 100 NW9       29.89R FOG     WCI  24
$$

...ELSEWHERE IN IOWA...


CITY           SKY/WX    TMP DP  RH WIND       PRES   REMARKS
DES MOINES     DRZL/FOG  34  33  96 NW10      29.97S VSB 1   WCI  26
IOWA CITY      CLOUDY    35  33  92 W10       29.93R FOG     WCI  27
FORT DODGE     CLOUDY    32  28  86 CALM      29.97R
MARSHALLTOWN   CLOUDY    33  32  96 W9        29.93R WCI  25
CEDAR RAPIDS   FOG       32  32 100 W8        29.90R VSB 1   WCI  25
$$

...NORTHERN ILLINOIS...


CITY           SKY/WX    TMP DP  RH WIND       PRES   REMARKS
CHICAGO-OHARE  CLOUDY    37  36  96 W9        29.80R FOG     WCI  30
CHICAGO-MIDWAY CLOUDY    35  35 100 W13       29.83R WCI  26
MOLINE         CLOUDY    35  34  96 W12       29.90R FOG     WCI  27
ROCKFORD       FOG       35  34  96 W6        29.86R VSB 1/4 WCI  30
PEORIA         CLOUDY    38  38 100 W7        29.91R WCI  33
$$

NOTE: "FAIR" INDICATES FEW OR NO CLOUDS BELOW 12,000 FEET WITH NO
SIGNIFICANT WEATHER AND/OR OBSTRUCTIONS TO VISIBILITY. WIND
SPEEDS ARE IN MILES-PER-HOUR.




USA.gov is the U.S. government's official web portal to all federal, state and local government web resources and services.